Starlink 32196

operational
NORAD ID: 60430 Int'l Des: 2024-144 Owner: SPXS Country: US Constellation: starlink
LEOCIRCULAR

Starlink 32196について

説明を読み込み中...

リアルタイム位置

3D地球を読み込み中...

次回通過

高度履歴

Altitude vs Time

uPlot chart will show altitude changes over time

軌道要素

1 60430U 24144F 25256.46214725 .00000358 00000-0 24221-4 0 9990
2 60430 53.1608 320.4219 0000990 86.3599 273.7514 15.30191264 62174
Epoch: Sep 13, 2025 • Age: 49 hours

現在のステータス

高度 480.9 km
速度 7.63 km/s
衛星直下点 -19.54°S, 37.18°W
打ち上げ日 Aug 12, 2024
運用期間 1 years
タイプ internet

技術仕様

分類 Payload
質量 730.00 kg
乾燥質量 700.00 kg
総質量 730.00 kg
長さ 0.30 m
直径 4.10 m
スパン 29.00 m
形状 Box + pan
製造者 SPXS
バスタイプ Starlink V2M
フェーズステータス In Orbit
所有者/国 SPXS/US

大規模コンステレーション

Loading constellations...